Location: Newark
(50.4348°N, 30.5552°E)
Time: 15:00:09
(UTC+00:00)

Altair - Pass Details

Date: 27 January 2020
Orbit: 1502 x 1682 km, 47.2° (Epoch: 22 February)

Event Time Altitude Azimuth Distance (km) Brightness Sun altitude
Rises 13:14:53 0° 289° (WNW) 4,938 10.5 10.0°
Reaches altitude 10° 13:18:52 10° 276° (W) 3,937 10.3 9.6°
Maximum altitude 13:26:12 24° 229° (SW) 2,959 11.0 8.7°
Drops below altitude 10° 13:33:25 10° 181° (S) 3,848 10.3 7.9°
Sets 13:37:18 0° 168° (SSE) 4,801 10.5 7.4°
